THOR ABLESTAR DEB, 402

Orbit data source: Space-Track

THOR ABLESTAR DEB, 402 is space debris in LEO originally from a launch on Thu, 29 Jun 1961 UTC launched from the Air Force Eastern Test Range (AFETR). Debris objects in space refer to the collection of defunct objects orbiting the Earth. Examples of debris include non-operational satellites, rocket bodies, and fragments generated from explosions, collisions, or faulty payload assembly.

Loading next visibility...
Identifier
402, 1961-015EB
Orbit
LEO
Country
Flag of USUS
Related business
Manufacturer
Unknown
Mission
Spacecraft
Bus & Motor
Unknown
Mass
Unknown
Launch date (UTC)
1961-06-29 (64 years ago)
Launch vehicle
Unknown
Launch site
Air Force Eastern Test Range (AFETR)
Object type
Payload
Rocket body
Debris
Shape & HBR
Unknown shape, 0.1 m
Radar Cross Section
Small (<0.1 m²)

Expand to show TLE details & history
Last TLE update: 1 day ago

TLE from 1 day ago
0 THOR ABLESTAR DEB
1 00402U 61015EB  25301.90122316  .00012258  00000-0  21435-2 0  9999
2 00402  66.6520 158.9662 0023798 145.1854 215.0826 14.67919186307205
Epoch: 2025-10-28T21:37Z
TLE epoch observation values (Epoch: 2025-10-28T21:37:45.681Z)
Latitude
0.00002°
Longitude
157.0438°
Altitude
683.595 km
Speed
7.508 km/s
True Right ascension
10h 35m 51s
True Declination
0° 00' 00"
Sunlit
Object was in daylight at epoch
Visualization orbit readout
Latitude
Unknown
Longitude
Unknown
Altitude
Unknown
Speed
Unknown
Apparent Right ascension
Unknown
Apparent Declination
Unknown
Sunlit
N/A
Visualization observer readout
Local Sidereal Time
18:52:47
Azimuth
Unknown
Elevation
Unknown
Doppler factor
Unknown
Orbital elements
Apogee altitude
682.834 km
Perigee altitude
649.307 km
Semi-major axis
7,044.208 km
Eccentricity
0.00238
Inclination
66.652°
RAAN
158.9662°
Arg. of periapsis
145.1854°
True anomaly
214.92624°
Mean anomaly
215.0826°
Eccentric anomaly
215.00438°
Mean motion
3.67109 °/min
Orbital period
98.06 mins
BSTAR
0.0021435
Loading maneuver chart data...
Computing Atmospheric mass density...

Documentation

Showing up to 5 results
|